Location: Omaha
(41.2590°N, 95.9380°W)
Time: 13:30:14
(UTC-05:00)

Tiangong 1 - Pass Details

Date: 13 October 2017
Orbit: 294 x 320 km, 42.8° (Epoch: 18 October)

Event Time Altitude Azimuth Distance (km) Brightness Sun altitude
Rises 20:24:53 0° 283° (WNW) 2,038 6.4 -19.5°
Reaches altitude 10° 20:26:55 10° 277° (W) 1,202 4.8 -19.8°
Enters shadow 20:28:55 37° 244° (WSW) 499 2.0 -20.2°
